[[{"header":{"parameterUnit":"m.s-1","parameterCategory":1,"la1":30.2991,"la2":30.254,"lo1":-89.0895,"lo2":-89.0444,"dy":0.0017,"dx":0.0017,"nx":28,"ny":28,"refTime":"2023-08-28T21:00:00:Z","depth":0,"parameterNumber":2,"parameterNumberName":"U-component_of_WINDS"},"data":[0,0,0,0,0,0,0,0,0,0,0,0,0,0,0,0,0,0,0,0,0,0,0,0,0,0,0,0,0,0,0,0,0,0,0,0,0,0,0,0,0,0,0,0,0,0,0,0,0,0,0,0,0,0,0,0,0,0,-0.28,-0.28,0,-0.279,-0.2789,-0.2789,-0.2783,-0.2783,-0.2783,-0.2783,-0.2773,-0.2773,-0.2773,0,0,0,0,0,0,0,0,0,0,0,0,0,-0.2815,-0.2815,-0.28,-0.28,-0.28,-0.279,-0.2789,-0.2789,-0.2783,-0.2783,-0.2783,-0.2783,-0.2773,-0.2773,-0.2773,0,0,0,0,0,0,0,0,0,0,0,0,0,-0.2807,-0.2815,-0.28,-0.2795,-0.2795,-0.279,-0.2789,-0.2789,-0.2783,-0.2783,-0.2783,-0.2783,-0.2774,-0.2773,-0.2773,-0.2772,0,0,-0.2772,-0.2772,0,0,0,0,0,0,0,0,-0.2808,-0.2807,-0.2796,-0.2796,-0.2795,-0.2788,-0.2791,-0.2783,-0.2783,-0.2788,-0.2783,-0.2783,-0.2778,-0.2777,-0.2776,-0.2771,-0.2771,-0.2772,-0.2772,-0.2771,-0.2771,0,0,0,0,0,0,0,-0.2808,-0.2807,-0.2796,-0.2796,-0.2795,-0.2794,-0.2793,-0.279,-0.2783,-0.2787,-0.2787,-0.2786,-0.2778,-0.2776,-0.2775,-0.2771,-0.2772,-0.2772,-0.2771,-0.2771,-0.2765,-0.2765,0,0,0,0,0,0,-0.2809,-0.2808,-0.2796,-0.2796,-0.2801,-0.2794,-0.2793,-0.279,-0.2783,-0.2782,-0.2786,-0.2785,-0.2777,-0.2776,-0.2775,-0.2773,-0.2771,-0.2771,-0.2771,-0.2765,-0.2765,-0.2765,0,0,0,0,0,0,-0.281,-0.2808,-0.2797,-0.2801,-0.28,-0.2794,-0.2791,-0.279,-0.2788,-0.2782,-0.2781,-0.2785,-0.2777,-0.2776,-0.2773,-0.2773,-0.2771,-0.2771,-0.2765,-0.2765,-0.2765,-0.277,0,0,0,0,0,0,-0.281,-0.2809,-0.2808,-0.2801,-0.28,-0.2794,-0.2791,-0.279,-0.2787,-0.2787,-0.2781,-0.278,-0.2776,-0.2773,-0.2772,-0.2772,-0.277,-0.2765,-0.2765,-0.2765,-0.277,-0.277,-0.2771,0,0,0,0,0,-0.2811,-0.281,-0.2808,-0.2806,-0.2798,-0.2794,-0.2793,-0.2789,-0.2787,-0.2787,-0.2783,-0.278,-0.2773,-0.2773,-0.2772,-0.2772,-0.2765,-0.2765,-0.2765,-0.277,-0.277,-0.2771,0,0,0,0,0,0,-0.2817,-0.2809,-0.2807,-0.2803,-0.2799,-0.2793,-0.2792,-0.2789,-0.2786,-0.2786,-0.278,-0.2779,-0.2777,-0.2774,-0.2774,-0.2771,-0.2769,-0.2769,-0.2772,-0.2773,-0.2773,-0.2774,-0.277,0,0,0,0,0,-0.2817,-0.2814,-0.2808,-0.2806,-0.2804,-0.2798,-0.2796,-0.2793,-0.2789,-0.2787,-0.2783,-0.278,-0.2776,-0.2775,-0.2771,-0.2769,-0.2768,-0.2769,-0.2769,-0.277,-0.277,-0.2769,-0.2769,-0.2766,-0.2766,-0.2766,0,0,-0.2819,-0.2815,-0.2813,-0.2807,-0.2803,-0.28,-0.2797,-0.2794,-0.2792,-0.2787,-0.2784,-0.2781,-0.2776,-0.2774,-0.2773,-0.2772,-0.2771,-0.277,-0.277,-0.277,-0.2769,-0.2769,-0.277,-0.2766,-0.2766,-0.2766,0,0,-0.2821,-0.2817,-0.2815,-0.2812,-0.2806,-0.2803,-0.2802,-0.2796,-0.2794,-0.2791,-0.2787,-0.2785,-0.278,-0.2777,-0.2774,-0.2775,-0.2773,-0.2775,-0.2777,-0.2776,-0.2776,-0.2776,-0.2777,-0.2777,-0.2775,-0.2775,-0.2775,0,-0.2824,-0.2819,-0.2814,-0.2812,-0.2809,-0.2804,-0.2802,-0.2799,-0.2793,-0.2792,-0.2791,-0.2784,-0.2781,-0.2778,-0.2778,-0.2776,-0.2776,-0.2775,-0.2776,-0.2777,-0.2777,-0.2777,-0.2777,-0.2775,-0.2775,-0.2775,-0.2775,0,-0.2823,-0.282,-0.2819,-0.2813,-0.2811,-0.2808,-0.2803,-0.2801,-0.2799,-0.2795,-0.2792,-0.2788,-0.2784,-0.2783,-0.278,-0.278,-0.2779,-0.2777,-0.2775,-0.2777,-0.2778,-0.2778,-0.2775,-0.2775,-0.2775,-0.2775,0,0,-0.2829,-0.282,-0.282,-0.2817,-0.2811,-0.2809,-0.2806,-0.2802,-0.2801,-0.2797,-0.2795,-0.2791,-0.2789,-0.2786,-0.2783,-0.2783,-0.2784,-0.2781,-0.2781,-0.2782,-0.2783,-0.2785,-0.2785,-0.2782,-0.2782,-0.2782,-0.2784,0,-0.283,-0.2825,-0.282,-0.2817,-0.2814,-0.281,-0.2808,-0.2804,-0.2801,-0.2798,-0.2795,-0.2792,-0.279,-0.2788,-0.2787,-0.2784,-0.2784,-0.2784,-0.2781,-0.2781,-0.2782,-0.2785,-0.2787,-0.2788,-0.2784,-0.2784,-0.2784,0,-0.283,-0.2826,-0.2823,-0.2817,-0.2816,-0.2814,-0.281,-0.2808,-0.2803,-0.2801,-0.2799,-0.2795,-0.2793,-0.2791,-0.2788,-0.2788,-0.2786,-0.2785,-0.2785,-0.2784,-0.2782,-0.2785,-0.2789,-0.2789,-0.2784,-0.2784,-0.2784,0,-0.2835,-0.2829,-0.2826,-0.2824,-0.2817,-0.2816,-0.2813,-0.2809,-0.2807,-0.2803,-0.2802,-0.2799,-0.2797,-0.2794,-0.279,-0.2789,-0.2788,-0.2785,-0.2786,-0.2786,-0.2786,-0.2786,-0.279,-0.2785,-0.2785,-0.2785,-0.2785,0,-0.2836,-0.2834,-0.2828,-0.2826,-0.2824,-0.2819,-0.2817,-0.2814,-0.281,-0.2808,-0.2804,-0.2802,-0.2797,-0.2795,-0.2792,-0.279,-0.2789,-0.2787,-0.2787,-0.2788,-0.2788,-0.2787,-0.2787,-0.2785,-0.2785,-0.2785,-0.2785,0,-0.2841,-0.2836,-0.2833,-0.2827,-0.2825,-0.2824,-0.2819,-0.2817,-0.2814,-0.2812,-0.2811,-0.2806,-0.2803,-0.2798,-0.2794,-0.2792,-0.2791,-0.279,-0.2792,-0.2792,-0.2793,-0.2793,-0.2796,-0.2796,-0.2791,-0.2791,-0.2791,0,-0.2842,-0.2841,-0.2834,-0.2833,-0.283,-0.2827,-0.2825,-0.282,-0.2818,-0.2813,-0.2812,-0.2809,-0.2806,-0.2802,-0.2798,-0.2795,-0.2793,-0.2795,-0.2793,-0.2794,-0.2794,-0.2794,-0.2794,-0.2795,-0.2795,-0.2795,-0.2795,0,-0.2845,-0.2843,-0.284,-0.2836,-0.2833,-0.283,-0.2827,-0.2826,-0.282,-0.2818,-0.2815,-0.2813,-0.2808,-0.2805,-0.2802,-0.2799,-0.2797,-0.2796,-0.2796,-0.2797,-0.2799,-0.2798,-0.2794,-0.2796,-0.2796,-0.2796,-0.2796,-0.2796,-0.2848,-0.2847,-0.2842,-0.2839,-0.2836,-0.2833,-0.2831,-0.2828,-0.2825,-0.2821,-0.2818,-0.2815,-0.2811,-0.2806,-0.2804,-0.2802,-0.2801,-0.2801,-0.2801,-0.2801,-0.2801,-0.2799,-0.2801,-0.2801,-0.2801,-0.2801,-0.2801,0,-0.2852,-0.2848,-0.2845,-0.2841,-0.2838,-0.2836,-0.2832,-0.283,-0.2827,-0.2824,-0.2821,-0.2818,-0.2815,-0.2811,-0.2807,-0.2806,-0.2805,-0.2806,-0.2806,-0.2805,-0.2802,-0.2803,-0.2807,-0.2807,-0.2807,-0.2807,-0.2807,-0.2807,-0.2853,-0.285,-0.2848,-0.2843,-0.284,-0.2837,-0.2835,-0.2833,-0.283,-0.2826,-0.2824,-0.2821,-0.2817,-0.2814,-0.2811,-0.281,-0.2809,-0.281,-0.2809,-0.2806,-0.2806,-0.2805,-0.2805,-0.281,-0.281,-0.2812,-0.2812,-0.2812]},{"header":{"parameterUnit":"m.s-1","parameterCategory":1,"la1":30.2991,"la2":30.254,"lo1":-89.0895,"lo2":-89.0444,"dy":0.0017,"dx":0.0017,"nx":28,"ny":28,"refTime":"2023-08-28T21:00:00:Z","depth":0,"parameterNumber":3,"parameterNumberName":"V-component_of_WINDS"},"data":[0,0,0,0,0,0,0,0,0,0,0,0,0,0,0,0,0,0,0,0,0,0,0,0,0,0,0,0,0,0,0,0,0,0,0,0,0,0,0,0,0,0,0,0,0,0,0,0,0,0,0,0,0,0,0,0,0,0,0.7414,0.7416,0,0.7525,0.7527,0.7528,0.7515,0.7513,0.7512,0.751,0.7629,0.7633,0.7638,0,0,0,0,0,0,0,0,0,0,0,0,0,0.7195,0.7199,0.7414,0.7416,0.7417,0.7525,0.7527,0.7528,0.7515,0.7513,0.7511,0.7509,0.7627,0.7633,0.7639,0,0,0,0,0,0,0,0,0,0,0,0,0,0.7297,0.7201,0.7414,0.7424,0.7425,0.7525,0.7527,0.7529,0.7516,0.7513,0.751,0.7508,0.7625,0.7632,0.7639,0.7738,0,0,0.7662,0.7665,0,0,0,0,0,0,0,0,0.7291,0.7305,0.7421,0.7423,0.7425,0.7504,0.7493,0.7599,0.7517,0.7482,0.751,0.7507,0.759,0.76,0.7627,0.7744,0.7749,0.7662,0.7667,0.767,0.7672,0,0,0,0,0,0,0,0.7284,0.73,0.7458,0.7422,0.7425,0.7424,0.7435,0.7513,0.755,0.7485,0.7484,0.7497,0.759,0.762,0.7629,0.7751,0.7662,0.7668,0.7673,0.7676,0.7954,0.7957,0,0,0,0,0,0,0.7274,0.7294,0.7455,0.7462,0.735,0.743,0.7443,0.7481,0.7549,0.7556,0.7499,0.7496,0.7608,0.7621,0.7633,0.7753,0.767,0.7677,0.7681,0.7951,0.7955,0.7958,0,0,0,0,0,0,0.7269,0.7289,0.745,0.7378,0.7398,0.7436,0.748,0.7485,0.7514,0.756,0.7566,0.7522,0.7607,0.7623,0.7712,0.7757,0.768,0.7686,0.7948,0.7953,0.7957,0.7994,0,0,0,0,0,0,0.7263,0.7287,0.7324,0.7379,0.7402,0.7526,0.7483,0.7489,0.7526,0.7523,0.7583,0.759,0.7606,0.7701,0.7719,0.7766,0.7692,0.7944,0.795,0.7955,0.7989,0.8,0.8008,0,0,0,0,0,0.7255,0.7331,0.7326,0.7345,0.7449,0.7528,0.7542,0.7557,0.753,0.7568,0.7597,0.7588,0.7749,0.771,0.773,0.778,0.7941,0.7948,0.7955,0.7985,0.7998,0.8008,0,0,0,0,0,0,0.7283,0.7339,0.7333,0.7429,0.7474,0.7526,0.7575,0.757,0.7625,0.762,0.7638,0.7652,0.7741,0.777,0.7725,0.7879,0.7842,0.7853,0.7858,0.787,0.7879,0.7871,0.7698,0,0,0,0,0,0.7299,0.7357,0.7404,0.7484,0.7506,0.7537,0.7572,0.7579,0.7627,0.7647,0.7683,0.7731,0.7792,0.7833,0.7892,0.7993,0.8006,0.8037,0.8047,0.8054,0.8064,0.812,0.8135,0.7981,0.7981,0.7981,0,0,0.7335,0.7373,0.7409,0.749,0.7526,0.7587,0.7553,0.7619,0.7665,0.7658,0.7743,0.7771,0.7826,0.7921,0.7965,0.7948,0.8109,0.8063,0.8069,0.8075,0.8129,0.8143,0.8156,0.7986,0.7985,0.7984,0,0,0.7432,0.7466,0.7536,0.7572,0.7626,0.7645,0.7662,0.7715,0.7733,0.7818,0.7814,0.787,0.7975,0.8014,0.8048,0.8159,0.8154,0.8178,0.8229,0.8283,0.8295,0.8306,0.8346,0.836,0.8187,0.8187,0.8188,0,0.747,0.7561,0.7573,0.764,0.7676,0.7669,0.7741,0.7776,0.7848,0.7873,0.7852,0.7984,0.8021,0.8125,0.8152,0.818,0.82,0.8172,0.8292,0.8303,0.8313,0.8352,0.8367,0.819,0.819,0.819,0.8189,0,0.7605,0.7668,0.7719,0.7785,0.7827,0.7896,0.792,0.7961,0.7965,0.7987,0.8075,0.8119,0.8186,0.8212,0.8217,0.8317,0.8305,0.8288,0.825,0.833,0.8367,0.8382,0.8194,0.8193,0.8192,0.8191,0,0,0.7723,0.7794,0.7813,0.7843,0.7902,0.7952,0.8021,0.8085,0.812,0.817,0.8229,0.8317,0.8302,0.834,0.835,0.8397,0.8483,0.8375,0.8376,0.8394,0.8597,0.861,0.8627,0.8479,0.8482,0.8484,0.8593,0,0.7826,0.7946,0.7959,0.8067,0.8126,0.812,0.8181,0.8224,0.8246,0.8301,0.8326,0.8389,0.8363,0.8386,0.8433,0.8462,0.8524,0.8455,0.8536,0.8539,0.8523,0.8646,0.866,0.876,0.8607,0.8609,0.8611,0,0.7962,0.8013,0.8126,0.8176,0.8201,0.8255,0.8315,0.8367,0.8416,0.8429,0.8471,0.8475,0.8547,0.8506,0.8607,0.856,0.8594,0.8613,0.8618,0.8627,0.858,0.8659,0.8792,0.8807,0.8634,0.8632,0.863,0,0.8037,0.8134,0.8214,0.824,0.8301,0.8339,0.8366,0.8412,0.845,0.8503,0.8528,0.8589,0.8623,0.8672,0.8692,0.866,0.8792,0.8753,0.8806,0.8806,0.8835,0.8833,0.8977,0.8856,0.8855,0.8855,0.8855,0,0.8151,0.822,0.8249,0.8298,0.8377,0.8391,0.8469,0.8495,0.8536,0.8592,0.8591,0.8644,0.8666,0.8723,0.8739,0.8821,0.8836,0.885,0.8854,0.8851,0.8849,0.8874,0.8868,0.8859,0.8858,0.8857,0.8857,0,0.8248,0.827,0.8357,0.8406,0.842,0.8476,0.8519,0.8568,0.8589,0.8659,0.8677,0.8711,0.8777,0.8801,0.8883,0.8894,0.8989,0.8986,0.8972,0.8973,0.9025,0.902,0.919,0.9214,0.9076,0.9078,0.9079,0,0.832,0.8373,0.8427,0.8463,0.8491,0.855,0.8588,0.8604,0.8644,0.8704,0.8746,0.8811,0.8865,0.8972,0.9005,0.9067,0.9067,0.9122,0.9077,0.9072,0.9069,0.9066,0.9072,0.9131,0.9133,0.9134,0.9135,0,0.8444,0.8452,0.8506,0.8564,0.8609,0.8656,0.8701,0.8731,0.8755,0.88,0.8867,0.8908,0.899,0.9056,0.912,0.915,0.9147,0.9148,0.9164,0.9162,0.9152,0.9159,0.8996,0.9145,0.9144,0.9143,0.9143,0.9142,0.8532,0.8579,0.8624,0.8684,0.872,0.8762,0.881,0.8836,0.8892,0.8959,0.8965,0.9038,0.9086,0.9171,0.9204,0.9262,0.9247,0.927,0.9276,0.9281,0.9285,0.9141,0.9273,0.9273,0.9273,0.9273,0.9272,0,0.8657,0.8685,0.874,0.8803,0.8851,0.8841,0.8891,0.8932,0.8995,0.9039,0.9091,0.9169,0.9232,0.927,0.9334,0.9373,0.9374,0.939,0.9387,0.9394,0.9295,0.9275,0.9388,0.9388,0.9388,0.9388,0.9388,0.9388,0.8728,0.8807,0.882,0.8917,0.8946,0.9015,0.9044,0.9084,0.9119,0.9205,0.9257,0.928,0.9322,0.9389,0.9447,0.9457,0.9481,0.9499,0.9507,0.9413,0.9401,0.939,0.9372,0.9503,0.9504,0.9602,0.9603,0.9604]}]]